Dewpoint
69 70 70 64 55 52 48 48 50 51 52 56 57 54 54 57 54 55 67 67 68 70 70 74 76 74 74 75 75 75 75 75 75 75 74 73 73 73 73 73 73 73 72 72 72 72 72 73 73
66 71 67 63 53 46 46 50 48 53 56 57 57 58 57 58 64 66 66 68 69 68 69 73 73 71 72 72 75 75 75 75 75 75 75 75 74 74 73 73 72 72 72 72 73 73 72 73 73
68 68 62 59 55 47 47 53 53 55 55 55 57 59 59 60 65 66 67 68 68 70 71 72 72 72 72 72 74 75 75 75 75 74 75 75 75 74 74 74 73 73 73 73 74 73 73 73 73
66 63 61 55 50 53 52 53 53 55 56 57 58 58 63 66 66 66 69 68 67 69 69 72 73 73 73 72 73 75 75 75 75 74 75 75 74 74 74 73 73 74 74 74 73 73 72 72 72
63 61 54 52 50 52 54 54 54 55 55 57 58 58 61 65 67 69 69 67 67 70 69 72 73 72 73 73 74 75 75 75 75 75 74 75 74 74 74 74 74 74 74 74 73 73 72 72 71
57 57 51 50 49 50 52 54 55 55 56 59 58 58 62 66 67 69 68 67 70 70 69 73 73 74 74 74 75 75 74 75 74 75 75 75 74 74 74 74 74 74 73 74 73 72 72 72 71
56 56 51 50 49 49 51 53 54 54 56 55 59 57 63 66 67 68 68 69 71 71 73 74 74 73 74 75 75 74 73 74 74 74 74 75 74 73 74 74 74 73 73 72 72 72 72 72 72
58 57 52 51 50 49 51 53 54 55 55 60 60 56 60 65 67 68 68 69 72 73 74 74 75 74 75 73 74 74 74 74 73 74 74 74 74 74 73 73 74 73 72 72 71 71 72 72 71
59 51 50 51 50 49 53 52 56 58 58 59 60 60 62 66 66 66 68 69 72 72 72 74 71 75 76 73 72 74 74 74 73 74 74 74 72 73 72 74 73 72 72 72 72 72 73 73 72
51 50 47 52 54 52 51 52 55 56 58 59 61 62 64 66 66 65 66 66 67 68 72 74 71 74 74 72 74 75 73 73 74 74 75 75 75 73 72 72 73 73 73 73 73 73 73 73 70
52 45 45 42 50 54 52 54 55 55 57 57 58 62 64 65 65 65 65 65 66 68 70 73 74 75 73 73 72 72 73 73 73 75 76 75 73 72 70 70 70 71 71 69 68 68 69 71 71
39 44 47 47 52 54 53 55 54 56 54 56 60 62 64 65 64 64 64 65 66 68 69 72 73 74 73 72 72 71 71 72 72 74 75 73 69 70 73 70 71 71 68 68 68 69 71 72 72
35 32 32 50 50 54 54 54 54 55 55 60 61 63 64 64 64 64 64 66 66 66 69 71 72 74 73 73 73 71 70 70 73 73 73 71 71 72 72 72 72 72 71 68 70 71 71 73 72
31 32 33 50 53 54 54 54 55 55 58 61 61 61 63 64 64 64 65 66 66 66 68 69 72 73 73 73 73 72 70 70 72 73 70 71 71 72 72 73 72 71 71 69 69 70 71 72 71
28 28 40 49 50 51 54 52 50 56 59 60 60 61 62 63 64 64 65 66 67 66 68 68 70 72 72 72 72 72 69 69 72 73 72 72 72 73 74 72 71 70 72 72 71 71 70 70 69
28 34 32 36 48 50 49 45 50 57 59 59 60 61 62 63 64 65 66 66 67 67 68 69 68 70 71 70 70 70 70 68 69 72 73 73 74 74 74 72 71 73 74 73 72 70 70 70 69
29 27 29 31 39 44 44 40 51 59 58 58 60 61 61 63 64 65 65 66 67 68 68 68 69 69 70 71 70 70 71 70 68 70 71 73 73 73 72 72 72 73 72 71 70 72 72 70 68
25 24 25 27 30 29 29 37 39 57 58 58 59 60 61 62 62 64 65 65 67 68 69 68 68 70 71 71 71 70 70 70 70 68 69 70 71 72 73 72 73 73 71 69 68 73 70 70 70
26 25 26 27 27 28 29 33 39 47 57 58 59 60 61 61 62 63 64 65 66 68 69 68 68 70 70 70 68 68 67 69 70 68 69 69 69 72 73 71 72 73 72 72 72 72 70 68 71
25 24 25 26 27 23 27 33 37 50 53 56 58 59 60 60 61 63 63 64 65 67 68 69 69 71 70 69 70 68 68 70 70 68 68 69 68 71 72 73 71 73 71 73 73 73 70 71 71
23 22 24 23 25 26 35 35 39 37 51 53 55 57 58 59 60 62 63 63 65 67 68 69 70 70 70 71 70 70 70 70 69 68 67 68 69 70 73 73 73 73 73 70 72 71 72 71 72
16 19 20 22 22 19 27 17 28 30 32 42 48 54 56 59 60 61 62 63 64 66 68 70 70 71 71 72 70 70 67 67 68 68 68 68 70 70 72 72 73 74 72 73 72 73 73 74 73
16 18 18 20 21 22 20 19 20 28 26 29 35 44 50 56 59 60 61 62 63 65 67 69 70 71 71 72 71 69 69 68 69 68 70 71 71 71 71 73 74 73 72 73 73 72 74 72 70
18 18 18 21 21 15 17 17 16 21 27 27 32 39 52 55 58 60 61 62 63 64 66 68 70 71 72 71 71 71 70 70 68 68 68 69 68 69 72 72 74 74 73 73 72 73 74 74 74
19 15 16 15 14 13 19 18 20 22 25 26 28 30 48 55 58 59 61 61 63 64 66 67 70 70 71 71 70 71 70 71 70 69 68 69 68 68 70 73 74 73 74 73 73 74 74 73 72
19 14 15 18 14 15 20 17 16 23 25 34 36 30 44 54 56 58 60 61 63 64 66 67 68 70 70 71 71 71 71 69 68 69 68 68 68 69 72 73 74 74 74 74 74 72 75 73 72
18 17 14 13 15 14 18 21 21 25 30 32 39 40 49 52 55 58 60 61 63 64 66 67 68 69 70 70 71 71 71 70 69 69 70 68 71 69 72 72 72 72 73 74 74 72 75 74 75
19 19 16 19 21 21 19 25 22 30 31 36 35 44 48 53 55 57 60 61 63 64 65 66 68 68 69 69 70 70 70 70 70 70 70 70 69 71 71 71 71 71 72 72 74 72 73 74 72
20 21 22 20 20 19 18 19 30 34 34 36 36 35 42 52 55 57 59 61 63 64 64 66 66 68 68 69 69 70 69 70 70 69 70 70 69 70 71 72 72 72 71 72 73 74 73 73 73
21 22 23 21 25 23 22 19 26 30 34 36 38 42 44 45 55 58 59 61 62 63 64 65 66 66 68 69 70 70 70 70 69 70 70 71 70 70 71 72 72 72 72 72 72 71 71 73 73
Lifted_Index
-2 -2 -2 -2 -1 -1 -0 -0 0 0 1 0 -0 -0 -0 -1 -1 -1 -2 -2 -3 -3 -3 -4 -4 -4 -4 -4 -5 -4 -4 -4 -4 -4 -4 -4 -4 -4 -4 -5 -5 -4 -5 -5 -5 -5 -5 -6 -6
-2 -2 -2 -2 -2 -1 -1 -0 -0 0 0 0 -0 -1 -1 -1 -1 -2 -2 -2 -3 -3 -3 -4 -3 -2 -3 -4 -4 -4 -4 -4 -4 -4 -4 -4 -4 -4 -4 -4 -4 -4 -4 -5 -5 -5 -5 -5 -5
-2 -2 -2 -2 -2 -1 -1 -1 -1 -0 0 -0 -1 -1 -2 -2 -2 -2 -2 -2 -3 -3 -3 -3 -2 -2 -2 -3 -4 -4 -4 -4 -4 -4 -4 -4 -4 -5 -5 -4 -4 -4 -5 -5 -5 -4 -4 -5 -5
-2 -1 -1 -2 -2 -2 -2 -1 -1 -0 -0 -1 -1 -2 -2 -2 -2 -2 -2 -2 -3 -3 -3 -3 -2 -2 -3 -3 -4 -4 -4 -4 -4 -4 -4 -4 -4 -4 -4 -4 -5 -5 -5 -5 -5 -4 -4 -4 -5
-1 -0 -0 -1 -1 -2 -2 -2 -1 -1 -1 -1 -1 -2 -2 -2 -2 -2 -3 -3 -3 -3 -3 -3 -3 -3 -3 -3 -4 -4 -4 -4 -4 -4 -4 -4 -4 -4 -4 -5 -5 -5 -5 -5 -4 -4 -4 -5 -5
-1 -0 0 -0 -1 -1 -1 -2 -2 -2 -1 -1 -2 -2 -2 -2 -2 -2 -3 -3 -3 -4 -4 -4 -4 -3 -4 -4 -4 -4 -4 -4 -4 -4 -4 -4 -4 -4 -4 -5 -5 -5 -5 -5 -4 -4 -4 -5 -5
-1 -1 -0 -0 -0 -1 -1 -1 -2 -2 -2 -2 -2 -2 -2 -2 -2 -2 -3 -3 -4 -4 -4 -4 -4 -4 -4 -4 -4 -4 -4 -4 -4 -4 -4 -4 -4 -4 -4 -4 -5 -5 -5 -5 -4 -4 -4 -5 -5
-1 -1 -1 -1 -1 -1 -1 -2 -2 -2 -2 -2 -2 -2 -2 -2 -2 -2 -3 -3 -4 -4 -5 -5 -5 -5 -5 -4 -4 -4 -4 -4 -4 -4 -4 -4 -4 -4 -4 -4 -5 -5 -5 -4 -4 -4 -4 -5 -5
-1 -1 -1 -1 -1 -2 -2 -2 -2 -3 -3 -3 -2 -2 -2 -2 -2 -2 -3 -3 -4 -4 -4 -5 -5 -5 -5 -4 -4 -4 -4 -4 -4 -4 -4 -4 -4 -4 -4 -4 -5 -5 -5 -4 -4 -4 -5 -5 -4
-0 -0 -1 -1 -1 -1 -2 -2 -3 -3 -3 -3 -2 -2 -2 -2 -2 -2 -2 -2 -3 -3 -4 -5 -5 -5 -4 -4 -4 -4 -4 -4 -4 -4 -5 -5 -4 -4 -3 -3 -4 -4 -4 -4 -4 -4 -4 -4 -4
0 0 -0 -1 -1 -1 -2 -2 -3 -3 -3 -3 -2 -2 -2 -2 -2 -2 -2 -2 -2 -3 -4 -5 -5 -5 -4 -4 -3 -4 -4 -4 -4 -4 -5 -4 -3 -3 -3 -3 -3 -4 -3 -3 -3 -3 -4 -4 -4
2 1 0 -1 -1 -2 -2 -2 -3 -2 -2 -2 -2 -2 -2 -2 -2 -2 -2 -2 -2 -3 -4 -4 -5 -5 -4 -4 -3 -3 -3 -3 -4 -4 -4 -3 -3 -2 -3 -3 -3 -3 -3 -2 -3 -3 -4 -4 -4
3 2 1 -1 -1 -2 -2 -3 -3 -2 -2 -2 -2 -2 -2 -2 -2 -2 -2 -2 -3 -3 -3 -4 -4 -4 -4 -3 -3 -2 -2 -3 -3 -3 -3 -3 -2 -2 -3 -4 -4 -3 -3 -3 -3 -3 -4 -4 -5
3 3 1 -0 -1 -2 -2 -2 -2 -2 -3 -3 -2 -2 -2 -2 -2 -2 -2 -3 -3 -3 -3 -3 -4 -4 -4 -3 -3 -2 -1 -2 -3 -3 -2 -2 -2 -3 -3 -4 -4 -3 -3 -3 -3 -4 -4 -4 -4
4 3 2 1 -1 -1 -2 -1 -1 -2 -3 -3 -3 -2 -2 -2 -2 -2 -3 -3 -3 -3 -3 -3 -3 -3 -3 -3 -2 -2 -1 -2 -2 -3 -2 -2 -3 -3 -4 -4 -4 -3 -3 -3 -4 -4 -4 -4 -4
4 4 3 2 1 0 0 0 -0 -2 -3 -3 -3 -3 -3 -2 -2 -3 -3 -3 -3 -3 -2 -2 -3 -3 -3 -3 -2 -2 -2 -2 -2 -2 -3 -3 -3 -4 -4 -4 -3 -4 -4 -4 -4 -4 -4 -4 -4
4 4 4 4 3 3 2 2 0 -2 -3 -3 -3 -3 -3 -3 -3 -3 -3 -3 -3 -3 -2 -2 -2 -3 -3 -3 -2 -2 -2 -2 -1 -2 -2 -3 -3 -3 -3 -3 -4 -4 -3 -3 -3 -4 -4 -4 -4
5 4 4 4 4 4 4 3 1 -1 -3 -3 -3 -3 -3 -3 -3 -2 -2 -2 -3 -3 -2 -2 -2 -2 -3 -3 -2 -2 -2 -2 -1 -1 -2 -2 -2 -3 -3 -3 -3 -4 -3 -3 -3 -4 -4 -4 -4
5 4 4 5 5 5 4 4 3 0 -2 -3 -3 -3 -3 -3 -3 -2 -2 -2 -2 -3 -2 -2 -2 -2 -2 -2 -2 -2 -2 -2 -2 -1 -1 -1 -1 -2 -3 -3 -3 -3 -4 -3 -4 -4 -3 -4 -4
5 5 4 5 5 5 4 4 3 1 -1 -2 -2 -3 -3 -3 -2 -2 -2 -2 -2 -2 -2 -2 -2 -2 -2 -2 -2 -2 -2 -2 -2 -1 -1 -0 -1 -2 -3 -3 -3 -3 -4 -4 -4 -4 -4 -4 -4
5 5 5 5 5 5 4 3 3 2 1 -1 -1 -2 -2 -2 -2 -2 -2 -2 -2 -2 -2 -2 -2 -2 -2 -2 -2 -2 -2 -2 -2 -2 -1 -1 -1 -2 -3 -3 -3 -4 -4 -4 -4 -4 -4 -4 -4
5 5 5 5 4 4 3 3 2 3 2 1 1 -0 -1 -1 -2 -2 -1 -1 -2 -2 -2 -2 -2 -2 -2 -2 -2 -2 -2 -2 -2 -2 -1 -1 -1 -2 -3 -3 -4 -4 -4 -4 -4 -4 -4 -4 -4
5 5 5 5 4 4 3 3 2 2 2 2 2 2 1 -1 -1 -1 -1 -1 -2 -2 -2 -2 -2 -2 -2 -2 -2 -2 -2 -2 -2 -2 -2 -2 -2 -2 -3 -3 -4 -4 -4 -4 -4 -4 -4 -4 -4
5 5 4 4 3 3 3 3 2 2 2 2 2 2 1 -0 -1 -1 -1 -1 -1 -2 -2 -2 -2 -2 -2 -2 -2 -2 -2 -2 -2 -2 -2 -2 -2 -3 -3 -4 -4 -4 -4 -4 -4 -4 -4 -4 -4
5 4 3 2 2 2 3 3 2 2 2 2 2 2 1 -0 -1 -1 -1 -1 -2 -2 -2 -2 -2 -3 -2 -2 -2 -2 -2 -2 -2 -2 -2 -3 -3 -3 -3 -4 -5 -5 -4 -4 -4 -5 -5 -5 -5
4 4 3 2 1 2 3 3 2 3 2 2 1 1 1 -0 -1 -1 -1 -1 -2 -2 -2 -3 -3 -3 -3 -3 -3 -2 -2 -2 -2 -2 -2 -3 -3 -3 -3 -4 -5 -5 -5 -5 -5 -5 -5 -5 -5
4 4 3 2 2 2 2 3 2 2 2 1 1 1 0 -1 -1 -2 -2 -2 -2 -2 -3 -3 -3 -3 -3 -3 -3 -3 -2 -2 -2 -2 -2 -2 -3 -3 -3 -4 -4 -4 -4 -5 -5 -5 -5 -5 -5
4 3 3 2 2 1 2 2 2 2 1 1 0 0 -0 -1 -2 -2 -3 -3 -3 -3 -3 -3 -3 -3 -3 -3 -3 -3 -3 -2 -2 -2 -2 -2 -2 -3 -3 -3 -3 -3 -4 -4 -5 -5 -5 -5 -5
3 3 3 2 2 1 1 2 2 2 2 1 0 0 0 -1 -2 -3 -3 -3 -3 -3 -3 -3 -3 -3 -3 -3 -3 -3 -3 -3 -2 -2 -2 -2 -2 -2 -3 -3 -3 -3 -4 -4 -5 -5 -5 -5 -5
3 3 3 2 2 2 1 2 2 2 2 1 0 1 0 -1 -2 -3 -3 -3 -4 -4 -3 -3 -3 -3 -4 -4 -4 -3 -3 -3 -2 -2 -2 -2 -2 -2 -3 -3 -3 -4 -4 -4 -4 -4 -5 -5 -6